Location: Tamazert
(32.6352°N, 5.2072°W)
Time: 03:52:44
(UTC+00:00)

Vanguard 1 Rocket - Pass Details

Date: 12 October 2022
Orbit: 650 x 4225 km, 34.3° (Epoch: 05 December)

Event Time Altitude Azimuth Distance (km) Brightness Sun altitude
Rises 12:27:28 0° 177° (S) 7,023 12.6 49.6°
Reaches altitude 10° 12:35:37 10° 157° (SSE) 6,665 12.5 49.3°
Maximum altitude 12:46:53 16° 127° (SE) 6,745 12.2 48.8°
Drops below altitude 10° 12:59:05 10° 98° (E) 7,425 12.1 48.0°
Sets 13:08:51 0° 81° (E) 8,260 12.1 47.3°
